TAM3908 SBSP-SBRJ

Flight info

Callsign TAM3908
Flight time 0h 37m
Altitude 25000
Route NIBRU UZ171 KEVUN
Aircraft A319/M-SDE2FGHIM1RWXYZ/S

Departure

Time 2026-04-30 12:33
Airport Congonhas–Deputado Freitas Nobre Airport (SBSP)

Arrival

Time 2026-04-30 13:11
Airport Santos Dumont Airport (SBRJ)
Time Latitude Longitude Altitude Speed Heading
2026-04-30 11:48 -23.62600 -46.65907 2601 ft 0 kts 237°
2026-04-30 12:24 -23.62591 -46.65891 2601 ft 3 kts 237°
2026-04-30 12:24 -23.62581 -46.65872 2601 ft 4 kts 278°
2026-04-30 12:25 -23.62593 -46.65853 2601 ft 3 kts 327°
2026-04-30 12:25 -23.62603 -46.65847 2601 ft 0 kts 327°
2026-04-30 12:28 -23.62596 -46.65848 2601 ft 2 kts 349°
2026-04-30 12:28 -23.62566 -46.65845 2601 ft 6 kts
2026-04-30 12:28 -23.62512 -46.65861 2602 ft 10 kts 327°
2026-04-30 12:28 -23.62447 -46.65906 2601 ft 12 kts 327°
2026-04-30 12:29 -23.62367 -46.65962 2600 ft 15 kts 327°
2026-04-30 12:29 -23.62275 -46.66025 2600 ft 14 kts 328°
2026-04-30 12:29 -23.62185 -46.66079 2599 ft 14 kts 327°
2026-04-30 12:29 -23.62130 -46.66118 2599 ft 6 kts 327°
2026-04-30 12:30 -23.62125 -46.66121 2599 ft 0 kts 327°
2026-04-30 12:31 -23.62122 -46.66123 2593 ft 2 kts 327°
2026-04-30 12:32 -23.62090 -46.66139 2598 ft 8 kts 346°
2026-04-30 12:32 -23.62038 -46.66107 2593 ft 4 kts 57°
2026-04-30 12:32 -23.62045 -46.66079 2589 ft 4 kts 143°
2026-04-30 12:32 -23.62052 -46.66073 2591 ft 0 kts 147°
2026-04-30 12:33 -23.62078 -46.66055 2596 ft 30 kts 147°
2026-04-30 12:33 -23.62528 -46.65743 2605 ft 121 kts 148°
2026-04-30 12:33 -23.63403 -46.65131 2935 ft 158 kts 145°
2026-04-30 12:33 -23.64314 -46.64459 3769 ft 158 kts 140°
2026-04-30 12:34 -23.64970 -46.63428 4145 ft 177 kts 118°
2026-04-30 12:34 -23.65577 -46.62190 4431 ft 198 kts 118°
2026-04-30 12:34 -23.66273 -46.60780 4688 ft 225 kts 118°
2026-04-30 12:34 -23.67067 -46.59188 5134 ft 251 kts 119°
2026-04-30 12:35 -23.67951 -46.57428 5636 ft 274 kts 119°
2026-04-30 12:35 -23.68891 -46.55567 6442 ft 284 kts 120°
2026-04-30 12:35 -23.69857 -46.53658 7305 ft 291 kts 120°
2026-04-30 12:35 -23.70840 -46.51701 8191 ft 296 kts 117°
2026-04-30 12:36 -23.71534 -46.49567 9060 ft 302 kts 102°
2026-04-30 12:36 -23.71737 -46.47271 9933 ft 307 kts 88°
2026-04-30 12:36 -23.71484 -46.44909 10480 ft 324 kts 81°
2026-04-30 12:36 -23.71126 -46.42397 10796 ft 345 kts 81°
2026-04-30 12:37 -23.70746 -46.39777 11411 ft 353 kts 81°
2026-04-30 12:37 -23.70359 -46.37117 12112 ft 358 kts 81°
2026-04-30 12:37 -23.69975 -46.34452 12808 ft 362 kts 81°
2026-04-30 12:37 -23.69585 -46.31723 13490 ft 366 kts 81°
2026-04-30 12:38 -23.69190 -46.28965 14127 ft 370 kts 81°
2026-04-30 12:38 -23.68789 -46.26169 14710 ft 374 kts 81°
2026-04-30 12:38 -23.68386 -46.23351 15298 ft 377 kts 81°
2026-04-30 12:38 -23.67978 -46.20497 15882 ft 381 kts 81°
2026-04-30 12:39 -23.67570 -46.17633 16457 ft 384 kts 81°
2026-04-30 12:39 -23.67161 -46.14780 17018 ft 387 kts 81°
2026-04-30 12:39 -23.66742 -46.11860 17566 ft 391 kts 81°
2026-04-30 12:39 -23.66317 -46.08902 18123 ft 395 kts 81°
2026-04-30 12:40 -23.65890 -46.05921 18655 ft 399 kts 81°
2026-04-30 12:40 -23.65464 -46.02948 19106 ft 403 kts 81°
2026-04-30 12:40 -23.65028 -45.99910 19570 ft 407 kts 81°
2026-04-30 12:40 -23.64588 -45.96842 20031 ft 411 kts 80°
2026-04-30 12:41 -23.64144 -45.93745 20473 ft 416 kts 80°
2026-04-30 12:41 -23.63691 -45.90609 20928 ft 420 kts 80°
2026-04-30 12:41 -23.63232 -45.87451 21394 ft 424 kts 80°
2026-04-30 12:41 -23.62767 -45.84258 21852 ft 427 kts 79°
2026-04-30 12:42 -23.62304 -45.81084 22309 ft 431 kts 79°
2026-04-30 12:42 -23.61833 -45.77841 22769 ft 435 kts 79°
2026-04-30 12:42 -23.61359 -45.74573 23209 ft 439 kts 79°
2026-04-30 12:42 -23.60879 -45.71255 23654 ft 443 kts 79°
2026-04-30 12:43 -23.60395 -45.67922 24008 ft 447 kts 79°
2026-04-30 12:43 -23.59906 -45.64564 24380 ft 450 kts 79°
2026-04-30 12:43 -23.59411 -45.61185 24756 ft 453 kts 79°
2026-04-30 12:43 -23.58915 -45.57822 25041 ft 455 kts 79°
2026-04-30 12:44 -23.58414 -45.54428 25117 ft 449 kts 79°
2026-04-30 12:44 -23.57921 -45.51078 25138 ft 435 kts 79°
2026-04-30 12:44 -23.57449 -45.47880 25137 ft 430 kts 79°
2026-04-30 12:44 -23.56926 -45.44674 25138 ft 428 kts 77°
2026-04-30 12:45 -23.56305 -45.41502 25139 ft 427 kts 75°
2026-04-30 12:45 -23.55621 -45.38364 25135 ft 426 kts 74°
2026-04-30 12:45 -23.54904 -45.35216 25139 ft 426 kts 73°
2026-04-30 12:45 -23.54188 -45.32075 25139 ft 426 kts 74°
2026-04-30 12:46 -23.53498 -45.28972 25137 ft 427 kts 74°
2026-04-30 12:46 -23.52815 -45.25823 25140 ft 428 kts 75°
2026-04-30 12:46 -23.52143 -45.22670 25141 ft 423 kts 75°
2026-04-30 12:46 -23.51491 -45.19572 25136 ft 421 kts 75°
2026-04-30 12:47 -23.50835 -45.16442 25136 ft 425 kts 75°
2026-04-30 12:47 -23.50175 -45.13299 25130 ft 426 kts 75°
2026-04-30 12:47 -23.49507 -45.10146 25130 ft 427 kts 75°
2026-04-30 12:47 -23.48835 -45.06997 25128 ft 427 kts 74°
2026-04-30 12:48 -23.48158 -45.03846 25128 ft 427 kts 74°
2026-04-30 12:48 -23.47708 -45.01752 25128 ft 427 kts 74°
2026-04-30 12:48 -23.46805 -44.97557 25128 ft 427 kts 74°
2026-04-30 12:48 -23.46129 -44.94401 25122 ft 427 kts 74°
2026-04-30 12:49 -23.45444 -44.91256 25070 ft 428 kts 74°
2026-04-30 12:49 -23.44747 -44.88106 24739 ft 426 kts 74°
2026-04-30 12:49 -23.44283 -44.86030 24430 ft 426 kts 73°
2026-04-30 12:49 -23.43581 -44.82893 23954 ft 426 kts 73°
2026-04-30 12:50 -23.42879 -44.79760 23423 ft 426 kts 73°
2026-04-30 12:50 -23.42178 -44.76630 22918 ft 424 kts 74°
2026-04-30 12:50 -23.41484 -44.73524 22399 ft 421 kts 74°
2026-04-30 12:50 -23.40797 -44.70431 21911 ft 419 kts 74°
2026-04-30 12:51 -23.40113 -44.67354 21395 ft 417 kts 74°
2026-04-30 12:51 -23.39431 -44.64298 20887 ft 414 kts 74°
2026-04-30 12:51 -23.38759 -44.61291 20382 ft 412 kts 74°
2026-04-30 12:51 -23.38082 -44.58265 19866 ft 410 kts 74°
2026-04-30 12:52 -23.37403 -44.55243 19355 ft 408 kts 75°
2026-04-30 12:52 -23.36731 -44.52246 18839 ft 406 kts 75°
2026-04-30 12:52 -23.36061 -44.49267 18319 ft 404 kts 75°
2026-04-30 12:52 -23.35393 -44.46307 17792 ft 400 kts 75°
2026-04-30 12:53 -23.34731 -44.43388 17330 ft 394 kts 73°
2026-04-30 12:53 -23.33810 -44.40648 16874 ft 387 kts 63°
2026-04-30 12:53 -23.32676 -44.38010 16416 ft 381 kts 63°
2026-04-30 12:53 -23.31556 -44.35409 15965 ft 377 kts 63°
2026-04-30 12:54 -23.30451 -44.32843 15513 ft 372 kts 63°
2026-04-30 12:54 -23.29357 -44.30307 15073 ft 368 kts 63°
2026-04-30 12:54 -23.28276 -44.27801 14631 ft 364 kts 63°
2026-04-30 12:54 -23.27209 -44.25321 14201 ft 360 kts 63°
2026-04-30 12:55 -23.26152 -44.22860 13750 ft 356 kts 63°
2026-04-30 12:55 -23.25121 -44.20457 13311 ft 351 kts 63°
2026-04-30 12:55 -23.24094 -44.18068 12889 ft 346 kts 63°
2026-04-30 12:55 -23.23081 -44.15713 12474 ft 341 kts 63°
2026-04-30 12:56 -23.22076 -44.13387 12055 ft 337 kts 64°
2026-04-30 12:56 -23.21084 -44.11094 11641 ft 334 kts 64°
2026-04-30 12:56 -23.20100 -44.08825 11234 ft 330 kts 64°
2026-04-30 12:56 -23.19117 -44.06587 10955 ft 324 kts 63°
2026-04-30 12:57 -23.18125 -44.04407 10803 ft 321 kts 63°
2026-04-30 12:57 -23.17123 -44.02244 10622 ft 319 kts 63°
2026-04-30 12:57 -23.16121 -44.00097 10438 ft 318 kts 63°
2026-04-30 12:57 -23.15150 -43.97977 10240 ft 315 kts 64°
2026-04-30 12:58 -23.14226 -43.95859 10050 ft 306 kts 65°
2026-04-30 12:58 -23.13343 -43.93779 9872 ft 300 kts 65°
2026-04-30 12:58 -23.12478 -43.91722 9741 ft 299 kts 65°
2026-04-30 12:58 -23.11616 -43.89672 9567 ft 297 kts 65°
2026-04-30 12:59 -23.10754 -43.87633 9424 ft 296 kts 65°
2026-04-30 12:59 -23.09889 -43.85598 9258 ft 296 kts 65°
2026-04-30 12:59 -23.09037 -43.83600 9097 ft 295 kts 65°
2026-04-30 12:59 -23.08169 -43.81578 8936 ft 294 kts 65°
2026-04-30 13:00 -23.07305 -43.79569 8763 ft 293 kts 65°
2026-04-30 13:00 -23.06441 -43.77562 8615 ft 293 kts 65°
2026-04-30 13:00 -23.05579 -43.75552 8456 ft 292 kts 65°
2026-04-30 13:00 -23.04723 -43.73554 8296 ft 292 kts 65°
2026-04-30 13:01 -23.03865 -43.71557 8141 ft 291 kts 65°
2026-04-30 13:01 -23.03010 -43.69568 7977 ft 290 kts 65°
2026-04-30 13:01 -23.02150 -43.67586 7697 ft 289 kts 64°
2026-04-30 13:01 -23.01302 -43.65642 7433 ft 288 kts 64°
2026-04-30 13:02 -23.00441 -43.63679 7168 ft 287 kts 64°
2026-04-30 13:02 -22.99586 -43.61731 6930 ft 284 kts 64°
2026-04-30 13:02 -22.98736 -43.59801 6782 ft 282 kts 64°
2026-04-30 13:02 -22.97898 -43.57904 6610 ft 282 kts 64°
2026-04-30 13:03 -22.97052 -43.55991 6340 ft 279 kts 63°
2026-04-30 13:03 -22.96229 -43.54126 6213 ft 268 kts 64°
2026-04-30 13:03 -22.95440 -43.52330 6087 ft 259 kts 63°
2026-04-30 13:03 -22.94676 -43.50592 5951 ft 251 kts 63°
2026-04-30 13:04 -22.93944 -43.48885 5721 ft 249 kts 64°
2026-04-30 13:04 -22.93225 -43.47181 5433 ft 247 kts 64°
2026-04-30 13:04 -22.92518 -43.45495 5166 ft 244 kts 64°
2026-04-30 13:04 -22.91823 -43.43841 4891 ft 243 kts 64°
2026-04-30 13:05 -22.91122 -43.42178 4666 ft 242 kts 64°
2026-04-30 13:05 -22.90419 -43.40515 4451 ft 242 kts 64°
2026-04-30 13:05 -22.89717 -43.38858 4234 ft 240 kts 64°
2026-04-30 13:06 -22.88456 -43.35654 3989 ft 224 kts 76°
2026-04-30 13:06 -22.88300 -43.33983 3709 ft 224 kts 92°
2026-04-30 13:06 -22.88370 -43.32292 3462 ft 223 kts 92°
2026-04-30 13:06 -22.88428 -43.30648 3245 ft 218 kts 92°
2026-04-30 13:07 -22.88484 -43.29024 3023 ft 211 kts 91°
2026-04-30 13:07 -22.88533 -43.27477 2847 ft 200 kts 91°
2026-04-30 13:07 -22.88713 -43.26019 2655 ft 191 kts 108°
2026-04-30 13:07 -22.89198 -43.24700 2406 ft 187 kts 112°
2026-04-30 13:08 -22.89677 -43.23416 2180 ft 184 kts 112°
2026-04-30 13:08 -22.90151 -43.22140 1952 ft 175 kts 112°
2026-04-30 13:08 -22.90651 -43.20988 1735 ft 166 kts 124°
2026-04-30 13:08 -22.91410 -43.20116 1541 ft 152 kts 143°
2026-04-30 13:09 -22.92320 -43.19585 1360 ft 147 kts 161°
2026-04-30 13:09 -22.93310 -43.19368 1173 ft 144 kts 174°
2026-04-30 13:09 -22.94216 -43.18936 1051 ft 146 kts 139°
2026-04-30 13:09 -22.94686 -43.17996 855 ft 146 kts 99°
2026-04-30 13:10 -22.94485 -43.16944 680 ft 144 kts 59°
2026-04-30 13:10 -22.93753 -43.16272 490 ft 135 kts 22°
2026-04-30 13:10 -22.92847 -43.16170 296 ft 130 kts 356°
2026-04-30 13:10 -22.91958 -43.16230 116 ft 126 kts 359°
2026-04-30 13:11 -22.91107 -43.16278 22 ft 110 kts 356°
2026-04-30 13:11 -22.90629 -43.16310 25 ft 37 kts 356°
2026-04-30 13:11 -22.90492 -43.16356 25 ft 16 kts 282°
2026-04-30 13:11 -22.90497 -43.16491 23 ft 19 kts 266°
2026-04-30 13:12 -22.90549 -43.16556 22 ft 14 kts 175°
2026-04-30 13:12 -22.90656 -43.16549 24 ft 17 kts 176°
2026-04-30 13:12 -22.90781 -43.16541 24 ft 18 kts 180°
2026-04-30 13:13 -22.91028 -43.16538 22 ft 16 kts 176°
2026-04-30 13:13 -22.91119 -43.16521 22 ft 13 kts 168°
2026-04-30 13:13 -22.91241 -43.16522 22 ft 0 kts 239°
2026-04-30 13:14 -22.91243 -43.16536 22 ft 4 kts 261°
2026-04-30 13:14 -22.91245 -43.16574 22 ft 3 kts 266°
2026-04-30 13:14 -22.91245 -43.16582 22 ft 0 kts 267°